Location: Sungai Dangang
(2.7500°N, 113.8333°E)
Time: 13:11:17
(UTC+00:00)

Ariane H10+ - Pass Details

Date: 02 October 2021
Orbit: 237 x 7764 km, 6.8° (Epoch: 15 October)

Event Time Altitude Azimuth Distance (km) Brightness Sun altitude
Rises 10:26:11 0° 270° (W) 5,893 9.7 -3.2°
Reaches altitude 10° 10:31:57 10° 265° (W) 3,645 7.5 -4.7°
Maximum altitude 10:39:12 40° 197° (SSW) 973 2.8 -6.5°
Drops below altitude 10° 10:42:12 10° 124° (SE) 1,502 3.1 -7.2°
Enters shadow 10:42:47 - 120° (ESE) 1,727 3.4 -7.4°
